Vorticity
nan nan nan nan nan nan nan nan nan nan nan nan nan nan nan nan nan nan nan nan nan nan nan nan nan nan nan nan nan nan nan nan nan nan nan nan nan nan nan nan nan nan nan
nan 19 19 15 12 9 10 10 9 8 8 11 11 11 11 9 10 10 8 7 8 8 8 10 10 10 10 8 10 9 6 7 9 8 9 11 15 16 14 12 9 12 nan
nan 12 12 14 19 15 12 10 9 9 10 12 14 12 10 9 9 9 10 9 9 8 9 10 11 11 9 10 10 9 7 6 6 7 9 9 15 15 9 7 8 7 nan
nan 12 11 10 13 23 25 15 9 10 9 12 10 10 10 11 11 11 11 10 11 12 13 16 17 14 12 9 11 9 8 7 8 7 7 11 10 9 7 5 5 5 nan
nan 12 10 11 11 16 13 20 18 12 11 13 10 8 10 9 9 11 12 14 14 12 11 12 19 29 28 18 17 17 9 7 8 9 7 7 8 12 9 4 9 8 nan
nan 11 11 11 11 11 13 10 18 14 12 11 10 10 8 6 12 23 18 12 14 13 10 8 8 15 17 16 18 26 27 19 10 6 9 10 8 7 13 11 8 8 nan
nan 10 14 13 12 8 10 8 13 14 13 9 10 10 10 7 14 21 20 13 11 11 11 12 10 9 10 5 3 5 12 17 23 24 13 9 12 11 10 10 9 12 nan
nan 10 11 13 13 12 10 8 9 15 11 11 9 10 9 7 12 15 13 11 10 10 11 12 11 11 13 14 7 3 4 8 17 24 22 19 16 16 12 14 13 11 nan
nan 10 10 11 12 12 11 12 12 11 9 11 11 10 12 9 10 16 13 9 8 8 11 12 15 12 16 17 11 8 7 4 9 13 11 11 11 17 22 15 10 6 nan
nan 11 11 11 11 11 11 13 12 11 10 9 10 8 11 12 10 18 18 11 8 7 7 7 13 19 15 17 17 9 7 8 6 2 1 1 6 5 13 18 17 11 nan
nan 11 11 12 11 10 11 11 11 11 10 9 9 8 6 9 13 16 22 19 13 10 9 9 6 14 14 15 15 17 14 10 8 9 9 8 6 7 7 11 16 18 nan
nan 11 11 12 12 11 10 11 11 11 9 9 9 9 6 4 5 12 16 20 20 14 11 13 15 9 9 8 13 14 13 11 9 9 8 10 8 9 10 10 11 13 nan
nan 11 11 11 12 12 11 12 11 11 10 9 9 10 10 10 0 -0 4 6 12 14 11 11 9 4 6 6 7 6 8 11 11 10 10 10 10 10 10 8 8 7 nan
nan 11 11 10 11 13 13 11 12 12 12 11 11 10 10 11 11 8 4 2 5 10 10 6 3 3 4 6 3 6 9 12 11 10 10 9 10 10 10 9 10 7 nan
nan 9 10 9 9 9 9 12 15 15 19 18 15 13 11 13 14 16 17 15 12 10 9 7 7 7 7 8 9 9 11 11 11 12 11 10 10 10 10 12 10 11 nan
nan 11 10 10 9 9 9 2 3 14 18 17 18 19 15 11 13 12 15 17 15 13 11 11 10 9 10 10 10 9 10 11 11 11 11 11 11 11 10 10 11 11 nan
nan 13 12 11 11 10 10 10 4 -2 -3 4 11 14 15 11 9 10 9 9 10 13 10 10 10 11 10 10 9 10 9 9 10 11 11 11 11 11 10 10 10 10 nan
nan 11 12 10 11 11 11 11 10 8 4 0 0 5 8 12 13 13 11 6 5 9 12 11 10 10 10 10 11 10 10 10 10 10 10 10 11 11 11 10 11 12 nan
nan 12 11 10 10 10 10 10 10 10 11 11 8 5 3 6 8 9 13 13 11 9 10 10 11 11 11 10 10 10 10 10 11 11 10 11 12 11 10 10 9 10 nan
nan 11 12 12 11 10 11 11 11 10 10 10 10 10 12 8 6 7 9 12 11 10 11 10 10 10 11 10 10 11 10 10 10 10 10 11 11 11 11 10 10 9 nan
nan 11 12 11 10 11 11 11 11 11 10 10 9 10 14 14 11 11 10 10 11 11 11 11 10 10 10 10 10 10 11 11 11 11 11 10 11 11 10 11 11 10 nan
nan 11 11 12 11 11 11 11 11 11 11 11 10 9 11 12 10 10 10 10 11 11 11 11 11 10 11 12 11 11 11 11 11 11 10 10 11 11 11 11 11 10 nan
nan 12 12 11 12 12 11 11 11 11 11 10 10 10 10 11 11 11 10 10 11 11 11 12 12 11 11 11 11 12 12 11 11 12 12 11 11 11 11 10 11 11 nan
nan 12 13 12 12 12 12 12 11 10 10 10 10 10 11 10 10 10 10 11 11 10 11 11 12 12 11 11 11 12 12 12 12 12 12 13 13 11 11 10 10 11 nan
nan 11 12 11 12 12 12 12 12 11 11 11 10 10 10 10 9 9 10 10 10 11 10 10 11 12 11 9 9 11 10 10 12 13 12 12 11 10 10 10 10 10 nan
nan nan nan nan nan nan nan nan nan nan nan nan nan nan nan nan nan nan nan nan nan nan nan nan nan nan nan nan nan nan nan nan nan nan nan nan nan nan nan nan nan nan nan
CAPE
5 190 396 325 108 89 109 178 132 40 0 30 31 50 116 202 224 134 118 69 59 59 26 6 1 0 0 1 0 0 0 0 0 0 0 35 83 82 33 19 25 8 0
11 8 84 126 115 136 110 116 86 5 0 8 9 26 24 67 15 23 3 1 15 6 7 14 3 0 1 2 1 0 0 0 0 0 0 31 51 31 54 64 28 0 0
11 5 3 1 14 86 69 7 2 1 1 2 4 7 3 0 0 0 3 6 13 9 24 37 10 1 1 1 1 1 0 0 0 0 1 14 23 62 64 4 1 2 2
7 6 3 7 5 3 11 2 3 3 4 8 2 0 0 0 0 3 2 2 8 19 2 2 8 12 0 1 1 1 0 0 1 44 1 0 37 2 6 2 3 1 3
5 5 5 2 1 2 1 1 2 0 0 0 0 0 0 0 0 0 0 2 7 1 0 0 0 0 0 0 1 1 0 2 4 0 0 0 1 3 3 3 2 1 4
2 2 6 4 2 1 2 0 1 1 1 0 0 0 0 0 0 1 0 0 0 0 1 1 0 0 0 1 2 3 0 1 0 0 0 0 0 0 0 0 1 2 1
3 3 3 4 3 2 0 1 0 2 0 1 1 1 2 2 0 0 0 0 1 1 1 0 1 1 0 0 0 0 0 0 0 0 0 0 0 0 0 0 0 0 1
3 4 3 4 2 2 0 0 0 0 1 1 2 2 2 3 1 0 0 1 1 1 1 1 1 1 0 0 0 0 0 0 0 0 0 0 0 0 0 0 0 1 0
3 2 4 3 2 1 0 0 0 0 2 3 3 2 3 4 2 0 0 1 1 2 1 1 0 1 1 1 0 1 0 1 2 2 1 1 0 0 0 0 0 0 0
7 7 6 4 2 1 1 1 1 0 1 1 2 2 5 3 3 1 0 1 2 1 2 2 3 2 1 0 0 0 0 1 0 0 0 0 0 0 0 0 0 0 0
6 7 7 8 5 3 2 1 1 1 0 1 2 2 2 3 4 4 1 0 2 3 2 3 4 4 3 3 1 1 1 1 1 0 0 0 0 0 0 0 0 0 0
5 5 5 6 6 10 3 3 4 4 2 1 0 1 1 1 5 6 5 3 1 2 2 5 7 6 4 4 3 4 2 0 0 0 0 0 0 0 1 1 1 1 2
4 5 8 6 8 9 9 7 7 6 5 7 6 8 7 6 5 6 6 4 4 3 3 7 6 5 3 3 4 1 0 0 0 0 0 2 3 5 1 0 0 0 0
0 1 4 7 7 9 7 7 7 9 7 10 12 8 5 6 6 4 6 7 4 5 4 9 4 3 2 2 3 3 3 1 2 4 4 4 2 2 2 1 0 0 0
0 1 2 2 4 4 10 13 14 15 8 6 8 10 8 9 12 7 4 5 4 4 3 5 5 4 3 4 4 4 3 2 3 3 3 4 3 1 1 1 0 0 0
0 0 1 2 3 2 2 2 4 9 9 6 5 11 20 10 5 3 3 3 2 0 2 3 4 4 3 3 2 2 2 2 3 3 3 2 2 1 1 1 0 0 0
1 0 0 0 1 2 3 3 6 4 3 4 6 7 4 4 3 2 1 0 0 0 2 4 6 5 4 2 2 1 2 2 1 2 2 2 2 2 1 0 0 0 0
1 0 0 0 1 2 3 4 5 4 4 5 2 6 7 4 1 0 0 0 0 0 1 3 5 4 1 0 0 0 0 0 0 0 1 1 1 0 0 0 0 0 0
2 4 2 2 1 0 2 3 2 1 1 1 1 0 0 0 0 0 0 1 1 1 0 1 1 0 0 0 1 0 0 1 1 0 1 0 2 0 0 0 0 0 0
0 0 0 2 0 0 0 1 2 1 1 1 1 2 0 0 1 2 3 4 2 2 1 0 0 0 0 0 1 1 1 2 1 0 2 3 4 1 1 1 1 1 0
1 1 0 1 0 0 0 1 3 2 1 1 1 0 0 0 2 3 2 4 4 3 4 1 4 3 2 1 0 0 0 0 0 0 1 0 2 2 1 2 1 0 0
1 1 0 2 0 0 0 1 2 2 1 1 1 0 0 1 1 2 2 4 5 2 2 3 2 2 1 0 0 0 0 0 0 1 1 0 0 0 1 1 1 1 0
1 3 2 2 3 0 0 0 2 3 3 3 2 1 1 2 1 1 1 2 0 0 1 1 2 0 0 0 0 0 0 0 0 0 0 0 0 1 1 2 0 0 0
2 2 2 2 0 2 3 2 3 0 1 1 2 2 1 1 2 0 0 1 0 0 0 0 0 0 0 0 1 0 0 0 0 0 0 0 0 0 1 0 0 0 0
2 5 4 4 3 2 2 2 2 3 3 3 2 2 0 0 0 0 0 0 0 0 0 0 0 0 0 0 0 0 0 0 0 0 0 0 0 0 0 0 0 0 0
1 2 3 4 4 5 6 4 2 2 2 2 2 2 2 2 1 0 0 0 0 0 0 0 0 0 0 0 0 0 0 0 0 0 0 0 0 0 0 0 0 0 0